Time,TemperatureF,DewpointF,PressureIn,WindDirection,WindDirectionDegrees,WindSpeedMPH,WindSpeedGustMPH,Humidity,HourlyPrecipIn,Conditions,Clouds,dailyrainin,SoftwareType,DateUTC
2013-04-13 00:07:00,41.7,36.0,29.85,WNW,282,2.0,9.0,79,0.00,,,0.00,weatherlink.com 1.10,2013-04-13 04:07:00,
2013-04-13 00:22:00,41.8,36.0,29.85,SW,222,3.0,8.0,79,0.00,,,0.00,weatherlink.com 1.10,2013-04-13 04:22:00,
2013-04-13 00:37:00,41.9,36.0,29.86,SW,234,2.0,7.0,80,0.00,,,0.00,weatherlink.com 1.10,2013-04-13 04:37:00,
2013-04-13 00:52:00,42.0,36.0,29.87,SW,227,3.0,8.0,79,0.00,,,0.00,weatherlink.com 1.10,2013-04-13 04:52:00,
2013-04-13 01:07:00,42.0,36.0,29.87,WSW,254,5.0,8.0,80,0.00,,,0.00,weatherlink.com 1.10,2013-04-13 05:07:00,
2013-04-13 01:22:00,42.1,37.0,29.87,WSW,241,4.0,9.0,81,0.00,,,0.00,weatherlink.com 1.10,2013-04-13 05:22:00,
2013-04-13 01:37:00,42.0,37.0,29.87,SSW,206,1.0,13.0,81,0.00,,,0.00,weatherlink.com 1.10,2013-04-13 05:37:00,
2013-04-13 01:52:00,42.0,37.0,29.87,SW,229,1.0,7.0,82,0.00,,,0.00,weatherlink.com 1.10,2013-04-13 05:52:00,
2013-04-13 02:07:00,41.9,37.0,29.87,SW,217,0.0,9.0,82,0.00,,,0.00,weatherlink.com 1.10,2013-04-13 06:07:00,
2013-04-13 02:22:00,41.8,37.0,29.86,SSE,163,3.0,6.0,82,0.00,,,0.00,weatherlink.com 1.10,2013-04-13 06:22:00,
2013-04-13 02:37:00,41.6,37.0,29.86,West,272,1.0,8.0,82,0.00,,,0.00,weatherlink.com 1.10,2013-04-13 06:37:00,
2013-04-13 02:52:00,41.6,37.0,29.86,SW,226,3.0,8.0,83,0.00,,,0.00,weatherlink.com 1.10,2013-04-13 06:52:00,
2013-04-13 03:07:00,41.5,37.0,29.86,SW,225,0.0,7.0,83,0.00,,,0.00,weatherlink.com 1.10,2013-04-13 07:07:00,
2013-04-13 03:22:00,41.5,36.0,29.86,SW,227,3.0,7.0,82,0.00,,,0.00,weatherlink.com 1.10,2013-04-13 07:22:00,
2013-04-13 03:37:00,41.4,37.0,29.87,SSW,208,2.0,6.0,83,0.00,,,0.00,weatherlink.com 1.10,2013-04-13 07:37:00,
2013-04-13 03:52:00,41.4,37.0,29.87,SW,224,2.0,7.0,83,0.00,,,0.00,weatherlink.com 1.10,2013-04-13 07:52:00,
2013-04-13 04:07:00,41.4,37.0,29.87,SSW,210,2.0,6.0,83,0.00,,,0.00,weatherlink.com 1.10,2013-04-13 08:07:00,
2013-04-13 04:23:00,41.5,36.0,29.87,SSW,213,5.0,11.0,82,0.00,,,0.00,weatherlink.com 1.10,2013-04-13 08:23:00,
2013-04-13 04:38:00,40.0,36.0,29.88,NNW,343,1.0,12.0,86,0.00,,,0.00,weatherlink.com 1.10,2013-04-13 08:38:00,
2013-04-13 04:53:00,38.9,35.0,29.88,South,179,3.0,8.0,87,0.00,,,0.00,weatherlink.com 1.10,2013-04-13 08:53:00,
2013-04-13 05:23:00,38.7,35.0,29.88,SSW,201,2.0,7.0,86,0.01,,,0.01,weatherlink.com 1.10,2013-04-13 09:23:00,
2013-04-13 05:38:00,38.9,35.0,29.88,West,266,3.0,7.0,84,0.01,,,0.01,weatherlink.com 1.10,2013-04-13 09:38:00,
2013-04-13 05:53:00,39.0,33.0,29.88,West,264,4.0,8.0,80,0.01,,,0.01,weatherlink.com 1.10,2013-04-13 09:53:00,
2013-04-13 06:08:00,39.1,33.0,29.88,West,270,3.0,11.0,79,0.00,,,0.01,weatherlink.com 1.10,2013-04-13 10:08:00,
2013-04-13 06:23:00,39.1,32.0,29.87,West,266,4.0,10.0,77,0.00,,,0.01,weatherlink.com 1.10,2013-04-13 10:23:00,
2013-04-13 06:38:00,39.1,32.0,29.87,WNW,299,1.0,12.0,77,0.00,,,0.01,weatherlink.com 1.10,2013-04-13 10:38:00,
2013-04-13 06:53:00,39.1,32.0,29.88,WNW,283,0.0,5.0,77,0.00,,,0.01,weatherlink.com 1.10,2013-04-13 10:53:00,
2013-04-13 07:08:00,39.2,33.0,29.88,WSW,256,3.0,5.0,78,0.00,,,0.01,weatherlink.com 1.10,2013-04-13 11:08:00,
2013-04-13 07:23:00,39.2,33.0,29.89,WSW,258,2.0,7.0,78,0.00,,,0.01,weatherlink.com 1.10,2013-04-13 11:23:00,
2013-04-13 07:38:00,39.3,33.0,29.88,SW,214,2.0,5.0,77,0.00,,,0.01,weatherlink.com 1.10,2013-04-13 11:38:00,
2013-04-13 08:08:00,39.7,34.0,29.89,SW,217,5.0,6.0,79,0.00,,,0.01,weatherlink.com 1.10,2013-04-13 12:08:00,
2013-04-13 08:38:00,40.2,34.0,29.90,SW,222,2.0,4.0,79,0.00,,,0.01,weatherlink.com 1.10,2013-04-13 12:38:00,
2013-04-13 08:53:00,40.4,35.0,29.90,SSW,204,0.0,8.0,80,0.00,,,0.01,weatherlink.com 1.10,2013-04-13 12:53:00,
2013-04-13 09:08:00,40.6,35.0,29.90,SW,214,3.0,6.0,80,0.00,,,0.01,weatherlink.com 1.10,2013-04-13 13:08:00,
2013-04-13 09:23:00,41.0,35.0,29.90,SSW,208,3.0,8.0,80,0.00,,,0.01,weatherlink.com 1.10,2013-04-13 13:23:00,
2013-04-13 09:38:00,41.5,36.0,29.90,NW,312,2.0,5.0,81,0.00,,,0.01,weatherlink.com 1.10,2013-04-13 13:38:00,
2013-04-13 10:23:00,42.4,36.0,29.90,SSW,205,3.0,8.0,78,0.00,,,0.01,weatherlink.com 1.10,2013-04-13 14:23:00,
2013-04-13 10:38:00,42.5,37.0,29.90,SW,228,5.0,9.0,80,0.00,,,0.01,weatherlink.com 1.10,2013-04-13 14:38:00,
2013-04-13 10:53:00,42.4,37.0,29.91,SW,227,5.0,12.0,82,0.00,,,0.01,weatherlink.com 1.10,2013-04-13 14:53:00,
2013-04-13 11:08:00,41.1,37.0,29.91,WSW,237,4.0,11.0,86,0.00,,,0.01,weatherlink.com 1.10,2013-04-13 15:08:00,
2013-04-13 11:23:00,40.4,38.0,29.92,SSW,208,1.0,9.0,90,0.02,,,0.03,weatherlink.com 1.10,2013-04-13 15:23:00,
2013-04-13 11:38:00,41.4,39.0,29.92,SW,234,9.0,11.0,91,0.02,,,0.03,weatherlink.com 1.10,2013-04-13 15:38:00,
2013-04-13 11:53:00,41.6,38.0,29.92,WSW,246,6.0,13.0,88,0.02,,,0.03,weatherlink.com 1.10,2013-04-13 15:53:00,
2013-04-13 12:08:00,42.1,39.0,29.93,SW,214,1.0,12.0,87,0.02,,,0.03,weatherlink.com 1.10,2013-04-13 16:08:00,
2013-04-13 12:38:00,43.1,38.0,29.92,West,266,6.0,12.0,83,0.00,,,0.03,weatherlink.com 1.10,2013-04-13 16:38:00,
2013-04-13 12:53:00,43.1,37.0,29.92,SW,223,2.0,15.0,80,0.00,,,0.03,weatherlink.com 1.10,2013-04-13 16:53:00,
2013-04-13 13:08:00,43.1,38.0,29.91,SW,216,4.0,12.0,82,0.00,,,0.03,weatherlink.com 1.10,2013-04-13 17:08:00,
2013-04-13 13:23:00,42.9,38.0,29.92,SSW,201,2.0,11.0,82,0.00,,,0.03,weatherlink.com 1.10,2013-04-13 17:23:00,
2013-04-13 13:38:00,42.9,38.0,29.92,West,262,5.0,9.0,83,0.00,,,0.03,weatherlink.com 1.10,2013-04-13 17:38:00,
2013-04-13 13:53:00,43.2,37.0,29.92,South,191,4.0,11.0,80,0.00,,,0.03,weatherlink.com 1.10,2013-04-13 17:53:00,
2013-04-13 14:08:00,43.4,37.0,29.92,WSW,251,4.0,14.0,78,0.00,,,0.03,weatherlink.com 1.10,2013-04-13 18:08:00,
2013-04-13 14:23:00,43.5,36.0,29.92,NNW,330,9.0,14.0,76,0.00,,,0.03,weatherlink.com 1.10,2013-04-13 18:23:00,
2013-04-13 14:39:00,43.4,37.0,29.92,WSW,253,2.0,10.0,78,0.00,,,0.03,weatherlink.com 1.10,2013-04-13 18:39:00,
2013-04-13 14:53:00,43.1,37.0,29.92,NW,317,5.0,12.0,78,0.00,,,0.03,weatherlink.com 1.10,2013-04-13 18:53:00,
2013-04-13 15:08:00,44.1,37.0,29.92,SW,218,5.0,11.0,76,0.00,,,0.03,weatherlink.com 1.10,2013-04-13 19:08:00,
2013-04-13 15:23:00,44.1,36.0,29.92,SW,228,4.0,14.0,73,0.00,,,0.03,weatherlink.com 1.10,2013-04-13 19:23:00,
2013-04-13 15:38:00,44.1,35.0,29.92,SSW,204,7.0,16.0,70,0.00,,,0.03,weatherlink.com 1.10,2013-04-13 19:38:00,
2013-04-13 15:54:00,44.2,35.0,29.93,SW,235,1.0,12.0,70,0.00,,,0.03,weatherlink.com 1.10,2013-04-13 19:54:00,
2013-04-13 16:09:00,44.2,35.0,29.93,SSW,203,2.0,13.0,70,0.00,,,0.03,weatherlink.com 1.10,2013-04-13 20:09:00,
2013-04-13 16:24:00,44.0,35.0,29.93,SSE,166,6.0,14.0,70,0.00,,,0.03,weatherlink.com 1.10,2013-04-13 20:24:00,
2013-04-13 16:39:00,43.8,35.0,29.93,SSW,203,4.0,11.0,72,0.00,,,0.03,weatherlink.com 1.10,2013-04-13 20:39:00,
2013-04-13 16:54:00,43.3,35.0,29.93,SSW,212,2.0,11.0,73,0.00,,,0.03,weatherlink.com 1.10,2013-04-13 20:54:00,
2013-04-13 17:09:00,43.4,36.0,29.93,WSW,250,2.0,14.0,74,0.00,,,0.03,weatherlink.com 1.10,2013-04-13 21:09:00,
2013-04-13 17:24:00,43.5,36.0,29.93,West,268,2.0,5.0,75,0.00,,,0.03,weatherlink.com 1.10,2013-04-13 21:24:00,
2013-04-13 17:39:00,43.2,35.0,29.94,WSW,253,1.0,13.0,74,0.00,,,0.03,weatherlink.com 1.10,2013-04-13 21:39:00,
2013-04-13 17:54:00,42.7,36.0,29.95,NW,308,8.0,16.0,78,0.00,,,0.03,weatherlink.com 1.10,2013-04-13 21:54:00,
2013-04-13 18:09:00,41.6,37.0,29.96,WNW,283,4.0,15.0,82,0.00,,,0.03,weatherlink.com 1.10,2013-04-13 22:09:00,
2013-04-13 18:24:00,41.0,36.0,29.98,WSW,242,6.0,14.0,83,0.00,,,0.03,weatherlink.com 1.10,2013-04-13 22:24:00,
2013-04-13 18:39:00,40.3,36.0,29.98,WSW,238,2.0,10.0,84,0.00,,,0.03,weatherlink.com 1.10,2013-04-13 22:39:00,
2013-04-13 18:54:00,40.0,35.0,29.98,SSW,205,5.0,10.0,82,0.00,,,0.03,weatherlink.com 1.10,2013-04-13 22:54:00,
2013-04-13 19:09:00,40.2,35.0,29.98,WSW,249,2.0,10.0,80,0.00,,,0.03,weatherlink.com 1.10,2013-04-13 23:09:00,
2013-04-13 19:24:00,40.3,34.0,29.99,SW,233,1.0,12.0,78,0.00,,,0.03,weatherlink.com 1.10,2013-04-13 23:24:00,
2013-04-13 19:39:00,40.3,34.0,29.99,WSW,247,7.0,11.0,78,0.00,,,0.03,weatherlink.com 1.10,2013-04-13 23:39:00,
2013-04-13 19:54:00,40.2,34.0,29.99,South,189,6.0,9.0,78,0.00,,,0.03,weatherlink.com 1.10,2013-04-13 23:54:00,
2013-04-13 20:09:00,39.7,33.0,30.00,West,260,4.0,7.0,78,0.00,,,0.03,weatherlink.com 1.10,2013-04-14 00:09:00,
2013-04-13 20:24:00,39.3,33.0,30.00,WSW,251,5.0,8.0,77,0.00,,,0.03,weatherlink.com 1.10,2013-04-14 00:24:00,
2013-04-13 20:39:00,39.1,32.0,30.00,SW,216,0.0,4.0,77,0.00,,,0.03,weatherlink.com 1.10,2013-04-14 00:39:00,
2013-04-13 20:54:00,38.9,32.0,30.00,WSW,253,1.0,6.0,77,0.00,,,0.03,weatherlink.com 1.10,2013-04-14 00:54:00,
2013-04-13 21:09:00,38.6,32.0,30.01,West,265,0.0,8.0,77,0.00,,,0.03,weatherlink.com 1.10,2013-04-14 01:09:00,
2013-04-13 21:24:00,38.5,32.0,30.01,West,264,0.0,3.0,78,0.00,,,0.03,weatherlink.com 1.10,2013-04-14 01:24:00,
2013-04-13 21:39:00,38.2,32.0,30.02,West,268,1.0,4.0,77,0.00,,,0.03,weatherlink.com 1.10,2013-04-14 01:39:00,
2013-04-13 21:54:00,38.0,32.0,30.02,West,271,0.0,2.0,79,0.00,,,0.03,weatherlink.com 1.10,2013-04-14 01:54:00,
2013-04-13 22:09:00,37.8,33.0,30.02,West,270,0.0,2.0,82,0.00,,,0.03,weatherlink.com 1.10,2013-04-14 02:09:00,
2013-04-13 22:24:00,37.5,33.0,30.03,SSW,210,0.0,1.0,82,0.00,,,0.03,weatherlink.com 1.10,2013-04-14 02:24:00,
2013-04-13 22:39:00,37.3,32.0,30.03,SW,216,0.0,2.0,82,0.00,,,0.03,weatherlink.com 1.10,2013-04-14 02:39:00,
2013-04-13 22:54:00,37.1,32.0,30.04,SW,221,0.0,2.0,83,0.00,,,0.03,weatherlink.com 1.10,2013-04-14 02:54:00,
2013-04-13 23:09:00,37.2,32.0,30.04,SW,216,0.0,2.0,82,0.00,,,0.03,weatherlink.com 1.10,2013-04-14 03:09:00,
2013-04-13 23:24:00,37.5,33.0,30.04,SW,216,0.0,1.0,83,0.00,,,0.03,weatherlink.com 1.10,2013-04-14 03:24:00,
2013-04-13 23:39:00,37.6,33.0,30.04,SW,216,0.0,0.0,82,0.00,,,0.03,weatherlink.com 1.10,2013-04-14 03:39:00,
2013-04-13 23:54:00,37.4,32.0,30.04,SW,233,0.0,0.0,81,0.00,,,0.03,weatherlink.com 1.10,2013-04-14 03:54:00,